Volver al catálogo

DELTA 1 DEB

ActivoPO
NORAD 9710·DEBRIS·🇺🇸 United States

Lanzado Jan 22, 1975 desde Vandenberg Space Force Base

Loading…

Próximos Pases (próximas 24 horas)

TLE

ActualizadoSource: Space-Track

Época: Sep 14, 2026, 12:50 UTC

1 09710U 75004GU  26257.53510606  .00000178  00000-0  88602-4 0  9995
2 09710  97.6559 107.2753 0154620  34.5669 326.5447 14.20076736376728

Sigue DELTA 1 DEB en tiempo real con AllMySat

Download on the App Store